Temperature
0 1 1 1 1 1 0 0 0 1 1 2 2 2 2 2 2 2 2 2 2 1 1 1 1 1 1 1 1 0 0 0 -0 -0 -0 -0 -0 -0 -0 -0 -0 -0 -0 -0
-0 1 1 1 1 1 1 1 0 1 1 2 2 2 2 2 2 1 1 1 1 1 1 1 1 1 0 0 0 -0 -0 -0 -0 -1 -1 -1 -1 -1 -1 -1 -1 -1 -1 -1
-0 -0 0 0 1 0 0 0 1 1 2 2 1 1 1 2 1 1 1 1 1 1 1 1 0 0 -0 -0 -0 -0 -1 -1 -1 -1 -1 -1 -1 -1 -1 -1 -1 -1 -1 -1
-1 -1 0 2 1 1 1 1 0 1 1 1 1 2 2 2 1 1 1 1 0 0 0 0 0 -0 -0 -1 -1 -1 -1 -1 -1 -1 -1 -2 -1 -2 -2 -2 -2 -2 -2 -2
-2 -1 -0 1 1 0 0 0 0 0 1 1 1 1 1 2 1 1 1 1 0 0 0 -0 -0 -0 -1 -1 -1 -1 -1 -2 -2 -2 -2 -2 -2 -2 -2 -2 -2 -2 -2 -2
-2 -1 0 2 1 1 1 1 1 1 0 0 -0 -0 0 1 1 1 0 0 0 -0 -0 -1 -1 -1 -1 -1 -1 -2 -2 -2 -2 -2 -2 -2 -2 -2 -3 -3 -3 -3 -3 -3
-2 -1 -0 1 0 1 1 2 2 1 1 0 -1 0 1 1 0 0 -0 -0 -0 -1 -1 -1 -1 -1 -1 -2 -2 -2 -2 -2 -2 -3 -3 -3 -3 -3 -3 -3 -3 -3 -3 -3
-2 -1 0 0 -0 0 1 2 2 2 1 1 1 1 0 0 -0 -0 -1 -1 -1 -1 -1 -1 -1 -2 -2 -2 -2 -2 -2 -3 -3 -3 -3 -3 -3 -3 -3 -4 -4 -4 -4 -4
-1 0 1 1 1 2 2 2 2 1 1 1 0 0 -0 -1 -1 -1 -1 -1 -1 -2 -1 -2 -2 -2 -2 -2 -3 -3 -3 -3 -3 -3 -3 -4 -4 -4 -4 -4 -4 -4 -4 -4
-2 -1 -0 1 2 2 2 2 2 1 1 0 -0 -0 -1 -1 -1 -1 -2 -2 -2 -2 -2 -2 -2 -2 -2 -3 -3 -3 -3 -3 -3 -4 -4 -4 -4 -4 -4 -4 -5 -5 -5 -5
-2 -2 -1 1 1 2 1 1 1 1 0 -0 -1 -1 -1 -1 -2 -2 -2 -2 -2 -2 -2 -2 -2 -3 -3 -3 -3 -3 -3 -3 -4 -4 -4 -4 -4 -5 -5 -5 -5 -5 -5 -5
-1 -0 -1 1 2 1 1 1 0 -0 -0 -1 -1 -1 -2 -2 -2 -2 -2 -2 -3 -3 -3 -3 -3 -3 -3 -3 -4 -4 -4 -4 -4 -4 -4 -4 -5 -5 -5 -5 -5 -5 -5 -5
1 1 1 1 1 1 0 0 -0 -1 -1 -1 -1 -2 -2 -2 -2 -2 -3 -3 -3 -3 -3 -3 -3 -3 -3 -4 -4 -4 -4 -4 -4 -4 -5 -5 -5 -5 -5 -5 -5 -5 -5 -5
1 0 -0 0 0 -0 -0 -1 -1 -1 -2 -2 -2 -2 -2 -2 -2 -3 -3 -3 -3 -3 -3 -3 -4 -4 -4 -4 -4 -4 -4 -4 -5 -5 -5 -5 -5 -5 -5 -5 -5 -5 -5 -5
0 -0 -0 -0 -1 -1 -1 -1 -2 -2 -2 -2 -2 -2 -3 -3 -3 -3 -3 -3 -3 -4 -4 -4 -4 -4 -4 -4 -4 -4 -5 -5 -5 -5 -5 -5 -5 -6 -6 -6 -6 -6 -5 -5
-0 -1 -1 -1 -1 -1 -2 -2 -2 -2 -2 -2 -3 -3 -3 -3 -3 -3 -3 -4 -4 -4 -4 -4 -4 -4 -4 -4 -5 -5 -5 -5 -5 -5 -5 -6 -6 -6 -6 -6 -6 -6 -6 -5
-1 -2 -2 -2 -2 -2 -2 -2 -2 -2 -2 -3 -3 -3 -3 -3 -3 -4 -4 -4 -4 -4 -4 -4 -4 -4 -5 -5 -5 -5 -5 -5 -5 -6 -6 -6 -6 -6 -6 -6 -6 -6 -6 -6
-1 -1 -1 -1 -2 -2 -2 -2 -2 -2 -3 -3 -3 -3 -3 -4 -4 -4 -4 -4 -4 -4 -5 -5 -5 -5 -5 -5 -5 -5 -5 -5 -6 -6 -6 -6 -6 -6 -6 -6 -6 -6 -6 -6
-1 -2 -2 -2 -2 -2 -2 -2 -3 -3 -3 -3 -4 -4 -4 -4 -4 -4 -4 -4 -4 -5 -5 -5 -5 -5 -5 -5 -5 -5 -6 -6 -6 -6 -6 -6 -6 -6 -6 -6 -6 -6 -6 -6
-2 -2 -2 -2 -3 -3 -3 -3 -3 -3 -3 -4 -4 -4 -4 -4 -5 -5 -5 -5 -5 -5 -5 -5 -5 -5 -5 -6 -6 -6 -6 -6 -6 -6 -6 -6 -6 -6 -6 -6 -6 -6 -6 -6
-2 -2 -3 -3 -3 -3 -3 -3 -3 -3 -4 -4 -4 -4 -4 -5 -5 -5 -5 -5 -5 -5 -5 -5 -5 -6 -6 -6 -6 -6 -6 -6 -6 -6 -6 -6 -6 -6 -6 -6 -6 -6 -6 -6
-2 -3 -3 -3 -3 -3 -3 -3 -4 -4 -4 -4 -4 -4 -4 -5 -5 -5 -5 -5 -5 -6 -6 -6 -6 -6 -6 -6 -6 -6 -6 -6 -6 -6 -6 -6 -6 -6 -6 -6 -6 -6 -6 -6
-3 -3 -3 -3 -3 -4 -4 -4 -4 -4 -4 -4 -4 -5 -5 -5 -5 -5 -5 -6 -6 -6 -6 -6 -6 -6 -6 -6 -6 -6 -6 -6 -6 -6 -6 -6 -6 -6 -6 -6 -6 -6 -6 -6
-3 -3 -4 -4 -4 -4 -4 -4 -4 -4 -5 -5 -5 -5 -5 -5 -5 -5 -5 -6 -6 -6 -6 -6 -6 -6 -6 -6 -6 -6 -6 -6 -6 -6 -7 -7 -7 -7 -6 -6 -6 -6 -6 -6
-3 -4 -4 -4 -4 -4 -4 -4 -5 -5 -5 -5 -5 -5 -5 -5 -5 -5 -6 -6 -6 -6 -6 -6 -6 -6 -6 -6 -6 -6 -6 -7 -7 -7 -7 -7 -7 -7 -7 -6 -6 -6 -6 -6
-4 -4 -4 -4 -4 -4 -4 -5 -5 -5 -5 -5 -5 -6 -6 -6 -6 -6 -6 -6 -6 -6 -6 -6 -6 -7 -7 -7 -7 -7 -7 -7 -7 -7 -7 -7 -7 -7 -7 -7 -6 -6 -6 -6
-4 -4 -5 -5 -5 -5 -5 -5 -5 -5 -5 -5 -6 -6 -6 -6 -6 -6 -6 -6 -6 -6 -6 -7 -7 -7 -7 -7 -7 -7 -7 -7 -7 -7 -7 -7 -7 -7 -7 -7 -7 -7 -6 -6
Wind_Speed
8 7 5 7 9 9 10 10 9 9 10 12 9 8 8 6 5 4 4 3 3 3 3 2 2 2 2 2 2 1 1 1 2 2 2 1 1 1 1 1 2 2 2 2
5 5 6 9 11 11 12 11 12 12 14 11 8 5 6 6 5 5 5 5 3 3 3 3 3 3 2 2 2 1 1 1 2 2 2 2 1 1 1 1 2 2 2 2
5 4 4 10 11 11 9 9 9 12 12 7 6 7 7 7 6 6 5 4 4 4 4 4 3 3 3 3 2 1 1 1 1 2 2 2 2 1 2 2 2 2 2 2
2 2 7 8 4 9 10 10 10 9 8 7 7 7 6 5 5 5 5 4 5 4 4 3 3 3 2 2 1 1 1 1 1 2 2 2 1 1 2 1 1 2 2 3
2 4 8 8 4 5 7 9 10 11 10 7 5 5 6 5 4 5 5 5 5 5 4 3 3 3 2 2 1 1 2 2 2 2 2 1 1 1 1 1 1 2 2 2
3 4 7 7 3 2 3 7 7 8 8 6 2 4 7 4 3 4 3 3 3 3 2 2 2 2 2 2 2 2 2 2 2 1 1 1 1 1 1 1 1 2 2 2
7 7 9 7 3 4 3 7 3 6 7 6 6 6 5 4 4 3 3 3 2 2 2 3 2 2 3 3 3 3 2 1 1 1 1 1 1 1 1 1 1 2 2 3
6 7 9 4 5 7 8 3 2 4 5 5 5 5 4 4 4 3 3 3 2 2 2 2 2 3 3 3 3 1 1 1 1 1 1 0 0 0 0 0 1 1 2 2
9 9 5 6 7 6 3 3 4 4 4 4 4 5 4 4 4 4 4 3 3 2 2 2 2 3 4 3 2 1 1 0 1 1 0 0 0 0 1 1 1 1 1 2
6 9 7 7 6 5 4 5 5 4 4 4 5 5 5 5 4 4 3 3 2 2 2 2 2 2 3 2 2 2 1 1 0 0 0 1 0 0 0 1 1 2 2 2
8 8 7 7 7 7 5 4 4 4 3 4 4 5 5 5 5 4 3 2 2 3 3 3 2 2 1 2 3 2 1 1 0 0 0 0 1 1 1 2 2 2 2 2
10 8 7 7 5 4 5 5 5 4 4 4 5 5 4 5 4 3 3 2 2 3 3 3 2 2 1 2 3 3 1 1 1 1 0 0 0 2 3 2 3 3 4 4
9 5 6 5 3 3 5 5 4 4 5 5 4 4 4 4 3 3 3 3 3 4 3 3 2 2 2 2 3 3 2 2 1 1 1 0 0 0 2 3 3 4 4 5
6 3 4 5 5 4 4 4 3 3 4 4 4 3 2 3 3 3 3 3 3 3 3 3 3 2 2 2 3 3 2 2 2 1 1 1 1 1 1 1 2 3 4 5
7 7 7 5 4 3 3 2 2 3 2 2 3 3 3 3 3 4 3 3 2 3 3 3 3 3 2 2 3 3 2 2 1 1 1 1 1 1 1 1 2 2 3 4
5 4 5 5 6 5 4 4 4 4 3 3 3 3 3 3 3 3 3 2 3 3 3 3 3 3 3 3 3 2 2 2 2 1 1 1 0 0 1 1 1 2 2 3
5 6 6 6 6 6 6 6 6 6 4 4 4 3 2 2 2 2 2 3 3 3 4 4 3 3 3 3 3 2 2 2 1 1 1 1 1 1 1 1 1 2 3 4
8 8 7 7 7 7 6 6 5 5 5 4 3 2 3 3 3 4 3 2 1 2 2 3 3 3 3 3 3 2 2 2 1 1 1 1 1 1 1 1 1 2 2 3
5 6 6 6 6 6 6 5 5 4 3 3 3 3 3 3 3 3 2 1 2 2 2 2 3 3 2 3 3 2 2 2 1 1 1 1 0 1 1 1 1 2 2 3
3 3 3 3 3 4 4 4 3 3 3 3 3 2 2 3 2 2 2 2 3 3 3 3 3 3 3 3 3 2 2 2 2 1 1 1 0 0 1 1 1 2 2 2
3 2 2 2 2 2 3 3 4 4 3 4 4 4 4 3 2 2 2 2 2 2 2 3 3 2 2 3 3 2 2 2 2 1 1 1 1 1 1 1 1 2 2 2
2 2 2 2 2 2 2 2 3 3 3 3 3 3 3 2 2 1 2 3 2 2 1 2 2 3 3 3 2 3 2 2 2 1 1 1 1 1 1 1 1 2 2 2
2 2 2 2 2 2 2 1 2 3 4 4 4 4 4 3 3 2 2 2 2 2 2 2 3 4 3 3 3 3 2 2 2 2 1 1 1 1 1 1 1 2 2 2
2 2 2 1 1 1 1 1 1 2 2 3 3 4 4 2 1 2 2 3 3 2 2 3 4 4 4 2 2 2 2 2 2 2 1 1 1 1 1 1 1 1 2 2
2 1 1 1 1 2 2 2 1 1 1 1 1 2 2 2 2 2 2 2 3 2 2 2 3 3 3 2 2 2 2 2 2 2 2 1 1 1 1 1 1 1 1 2
1 1 2 2 2 2 2 2 2 2 2 2 1 1 1 1 2 2 2 2 3 3 2 1 2 2 2 2 2 2 1 1 1 1 1 1 1 1 1 1 1 1 1 1
0 0 0 1 1 1 2 2 3 3 3 3 2 1 2 2 2 3 3 2 2 2 2 2 2 2 2 2 2 2 2 1 1 1 1 1 1 1 1 1 1 1 1 1
Wind_Direction
252 260 238 241 242 222 215 218 223 246 250 263 265 260 260 262 263 256 260 257 241 230 232 242 257 257 254 264 262 237 223 243 263 275 283 275 268 275 279 287 294 290 291 295
267 259 251 261 252 235 232 231 237 257 267 264 266 266 267 263 259 256 258 257 247 236 234 238 248 247 255 265 268 240 228 257 277 292 301 291 277 278 278 279 286 295 294 296
261 288 301 266 239 219 224 223 212 235 249 268 279 270 256 254 254 254 255 252 248 247 245 240 242 236 236 247 258 245 250 271 285 291 299 294 301 307 286 283 289 295 301 300
255 354 248 250 226 211 222 238 225 236 251 253 256 270 260 249 245 258 261 261 258 250 250 247 235 231 229 237 226 232 251 265 277 286 295 302 301 291 286 291 288 291 299 304
190 245 271 284 242 197 209 254 231 232 248 258 269 295 276 254 245 249 253 255 253 247 245 239 229 219 203 221 215 228 252 262 265 267 285 292 287 286 291 307 310 301 303 302
188 223 248 255 235 181 142 270 240 218 236 241 236 274 270 266 271 265 261 257 256 250 241 233 239 204 188 207 211 236 248 259 264 264 263 266 263 281 291 295 299 313 314 306
212 235 260 252 205 133 180 252 249 213 225 219 220 236 264 277 272 263 259 262 261 242 228 229 224 188 195 209 229 244 248 255 267 277 258 237 251 282 295 332 333 320 313 308
193 223 252 207 151 188 221 248 246 230 222 221 237 254 265 269 264 264 260 266 255 239 246 236 199 183 198 226 237 226 214 238 269 280 256 192 125 342 3 12 350 323 322 325
201 221 244 188 206 225 210 230 244 233 233 222 241 254 260 264 264 256 244 253 238 227 245 248 201 186 204 229 212 179 163 229 294 311 315 18 148 122 6 339 307 307 314 319
244 257 252 242 244 250 238 239 247 239 233 225 238 250 259 264 265 257 254 247 234 220 228 244 225 204 208 201 167 159 167 200 266 296 337 357 4 8 326 294 293 305 310 309
247 263 280 264 235 234 240 243 250 247 229 224 235 250 252 260 263 254 256 248 220 214 221 231 220 205 197 172 154 157 164 169 205 212 240 335 347 291 276 265 270 281 282 279
239 236 222 247 239 222 224 241 241 239 249 247 235 246 253 260 261 251 251 245 222 222 228 230 213 208 199 176 162 159 163 170 204 214 235 269 340 350 345 324 323 315 307 304
238 242 232 254 249 226 227 237 240 234 236 248 250 241 245 259 259 249 248 235 224 227 229 226 213 209 208 181 164 166 182 202 214 212 221 248 262 328 334 344 344 333 330 326
233 211 240 241 241 240 232 235 236 245 244 239 242 245 249 258 264 256 247 239 229 223 222 212 201 217 218 180 168 173 187 209 209 208 217 229 243 263 282 309 326 333 336 340
234 221 226 231 229 226 218 208 221 248 253 258 239 232 230 239 254 263 261 245 220 212 218 207 205 221 202 175 173 179 189 204 197 198 213 225 246 268 285 298 306 314 323 336
233 229 222 222 230 231 220 217 227 239 241 243 247 244 240 242 254 262 256 222 202 217 222 215 220 215 186 177 177 182 193 201 184 180 191 213 244 264 288 296 306 311 316 319
215 230 227 229 232 232 228 228 226 231 231 233 241 244 240 243 261 263 257 236 221 223 219 214 217 205 189 180 173 180 185 190 181 164 189 217 231 240 267 285 301 305 303 311
227 230 225 221 223 229 234 232 226 222 224 229 222 222 225 227 237 249 255 252 232 236 227 209 200 192 183 171 166 171 172 172 176 184 207 230 254 263 275 289 298 302 308 321
234 228 227 224 222 220 224 224 219 215 214 193 197 220 234 235 234 239 242 228 216 234 241 215 192 167 167 176 164 165 166 164 163 176 205 231 326 338 305 293 299 309 315 326
242 227 215 216 217 212 213 215 205 205 204 188 191 212 235 245 234 221 225 232 230 228 221 202 177 168 174 179 164 158 165 165 167 174 175 187 206 260 280 288 297 304 316 322
234 221 208 210 221 218 208 200 191 198 201 191 194 210 222 232 217 199 204 245 263 227 200 181 160 166 173 172 162 155 160 160 168 178 177 188 213 240 266 289 302 308 314 315
232 219 215 212 212 239 243 212 194 189 189 197 205 204 197 201 204 222 234 223 222 217 178 166 168 178 176 165 152 152 157 162 169 175 181 193 209 227 253 283 296 305 310 306
242 227 220 222 220 235 254 223 194 186 192 200 205 203 198 201 200 198 233 227 208 206 173 178 188 181 163 141 142 150 159 168 177 184 191 202 214 226 244 267 282 294 301 305
238 237 236 233 180 171 215 247 192 188 197 212 214 202 186 186 224 227 211 205 202 188 172 184 180 169 146 130 139 145 159 172 183 184 187 194 203 216 241 258 274 287 293 303
233 235 215 184 193 217 211 175 143 158 171 193 202 192 188 187 195 198 181 182 179 156 152 172 169 157 136 132 141 148 163 179 180 174 180 183 195 211 243 270 276 283 292 299
227 239 245 243 231 213 188 170 172 176 161 157 165 178 167 154 155 158 154 156 162 156 148 151 151 140 133 142 146 152 159 177 180 174 178 183 198 210 243 286 293 291 291 297
217 258 279 298 279 199 172 168 168 175 175 171 176 178 159 151 146 143 143 142 142 142 146 153 153 153 151 148 148 153 157 161 160 166 175 186 199 221 245 267 286 296 298 301
Height
1482 1479 1480 1478 1477 1478 1480 1477 1477 1466 1462 1454 1452 1452 1450 1449 1448 1448 1447 1446 1445 1444 1444 1444 1443 1442 1441 1439 1438 1437 1436 1435 1435 1434 1433 1432 1431 1431 1430 1430 1430 1429 1429 1428
1482 1477 1476 1474 1470 1471 1471 1469 1468 1463 1457 1448 1448 1448 1448 1446 1446 1445 1444 1443 1442 1442 1441 1441 1440 1439 1438 1437 1435 1434 1433 1432 1432 1431 1430 1429 1428 1428 1427 1427 1427 1426 1426 1425
1481 1478 1476 1471 1461 1463 1462 1460 1460 1457 1450 1445 1446 1445 1444 1443 1442 1441 1441 1440 1440 1439 1438 1438 1437 1436 1435 1434 1433 1431 1430 1429 1429 1428 1427 1426 1426 1425 1425 1424 1424 1423 1423 1422
1483 1482 1476 1456 1451 1452 1453 1451 1451 1448 1444 1443 1443 1441 1441 1440 1439 1438 1438 1437 1437 1436 1435 1435 1434 1433 1432 1431 1430 1429 1427 1427 1426 1425 1425 1424 1423 1423 1423 1422 1421 1421 1420 1419
1483 1479 1466 1453 1448 1449 1451 1447 1442 1443 1441 1440 1440 1439 1437 1437 1437 1436 1435 1434 1433 1433 1432 1431 1430 1430 1429 1428 1427 1426 1425 1424 1423 1423 1422 1421 1421 1421 1420 1419 1419 1418 1417 1416
1478 1474 1464 1446 1443 1443 1447 1446 1436 1436 1437 1437 1438 1440 1435 1434 1433 1432 1432 1431 1430 1429 1428 1428 1427 1427 1426 1425 1424 1423 1423 1422 1421 1421 1420 1419 1419 1418 1418 1417 1417 1416 1415 1414
1471 1469 1455 1442 1441 1443 1449 1440 1432 1432 1432 1433 1434 1433 1431 1430 1429 1429 1428 1427 1426 1425 1424 1424 1424 1423 1423 1422 1421 1421 1420 1420 1419 1419 1418 1418 1417 1417 1416 1415 1415 1414 1413 1412
1466 1464 1451 1437 1439 1440 1435 1430 1430 1429 1429 1429 1429 1428 1427 1426 1426 1425 1424 1423 1423 1422 1421 1421 1420 1420 1419 1419 1419 1419 1418 1418 1417 1417 1416 1416 1415 1415 1414 1414 1413 1412 1411 1410
1448 1441 1432 1431 1430 1429 1429 1428 1428 1427 1426 1426 1426 1425 1424 1423 1422 1421 1421 1420 1419 1418 1418 1418 1417 1417 1417 1417 1417 1416 1416 1416 1415 1415 1415 1414 1414 1413 1412 1412 1411 1410 1409 1408
1440 1432 1428 1427 1426 1426 1426 1426 1425 1425 1424 1423 1422 1421 1421 1420 1419 1418 1417 1416 1416 1415 1415 1414 1414 1414 1414 1414 1414 1414 1414 1414 1414 1413 1413 1413 1412 1412 1411 1410 1409 1409 1408 1406
1434 1427 1425 1422 1422 1422 1422 1422 1422 1421 1421 1420 1419 1418 1417 1416 1415 1415 1414 1413 1413 1412 1412 1412 1412 1412 1412 1412 1412 1412 1412 1412 1412 1412 1411 1411 1411 1410 1409 1409 1408 1408 1406 1405
1424 1419 1420 1418 1418 1418 1418 1418 1418 1417 1417 1416 1416 1414 1414 1413 1412 1411 1411 1410 1409 1409 1409 1409 1409 1409 1410 1410 1410 1410 1410 1410 1410 1410 1410 1409 1409 1408 1408 1407 1407 1406 1405 1404
1415 1414 1415 1414 1414 1414 1414 1414 1414 1413 1413 1412 1412 1411 1410 1409 1409 1408 1408 1407 1406 1406 1406 1406 1407 1407 1408 1408 1408 1408 1408 1408 1408 1408 1408 1407 1407 1406 1405 1405 1405 1404 1403 1402
1411 1412 1411 1410 1410 1410 1410 1410 1410 1410 1409 1409 1408 1408 1407 1406 1405 1405 1404 1404 1404 1404 1404 1404 1404 1405 1405 1406 1406 1406 1407 1407 1406 1406 1406 1406 1406 1405 1404 1403 1402 1401 1401 1400
1406 1407 1407 1406 1406 1406 1406 1406 1406 1405 1405 1405 1405 1404 1404 1403 1402 1401 1401 1401 1401 1401 1401 1401 1402 1402 1403 1404 1404 1404 1405 1405 1405 1405 1405 1405 1404 1404 1403 1402 1401 1400 1399 1398
1401 1402 1402 1401 1401 1401 1402 1402 1402 1401 1402 1401 1401 1401 1400 1399 1399 1398 1398 1398 1398 1398 1398 1399 1400 1400 1401 1402 1402 1402 1403 1403 1403 1403 1403 1403 1403 1402 1402 1401 1400 1399 1398 1397
1397 1396 1396 1396 1397 1397 1397 1397 1397 1398 1398 1398 1397 1397 1397 1396 1396 1395 1395 1395 1395 1396 1396 1397 1397 1398 1399 1399 1400 1400 1401 1401 1402 1402 1402 1402 1401 1401 1400 1400 1399 1398 1397 1396
1392 1392 1392 1392 1392 1392 1393 1393 1393 1394 1394 1394 1394 1394 1393 1393 1392 1392 1392 1392 1393 1393 1394 1395 1396 1396 1397 1398 1398 1399 1399 1399 1400 1400 1400 1400 1400 1400 1399 1399 1398 1397 1395 1395
1387 1387 1387 1388 1388 1389 1389 1389 1389 1390 1390 1390 1390 1390 1390 1390 1390 1390 1390 1390 1390 1391 1392 1393 1394 1394 1395 1396 1396 1397 1397 1398 1398 1399 1399 1399 1399 1399 1398 1398 1397 1396 1395 1394
1383 1384 1384 1384 1384 1385 1385 1385 1386 1386 1387 1387 1387 1387 1387 1387 1388 1388 1388 1388 1388 1389 1390 1390 1391 1392 1393 1394 1395 1395 1396 1396 1397 1397 1398 1398 1398 1397 1397 1396 1396 1395 1394 1393
1380 1380 1380 1381 1381 1381 1382 1382 1383 1383 1383 1384 1384 1384 1384 1385 1385 1385 1385 1386 1387 1387 1388 1389 1390 1390 1391 1392 1393 1394 1394 1395 1396 1396 1396 1397 1396 1396 1396 1396 1395 1394 1393 1392
1378 1378 1378 1378 1378 1378 1379 1379 1380 1380 1380 1381 1381 1382 1382 1382 1383 1383 1384 1384 1385 1385 1386 1387 1388 1389 1390 1391 1392 1393 1393 1394 1394 1395 1395 1395 1395 1395 1395 1395 1394 1394 1393 1392
1376 1376 1376 1376 1376 1376 1376 1376 1377 1377 1378 1378 1379 1379 1380 1380 1381 1381 1382 1383 1383 1384 1385 1386 1387 1388 1389 1390 1391 1391 1392 1393 1393 1394 1394 1394 1395 1395 1394 1394 1394 1393 1392 1391
1374 1374 1374 1374 1374 1374 1374 1374 1375 1375 1376 1377 1377 1378 1378 1378 1379 1380 1380 1381 1382 1382 1383 1385 1386 1387 1388 1389 1390 1390 1391 1392 1392 1393 1393 1393 1394 1394 1394 1393 1393 1392 1392 1391
1373 1372 1372 1371 1371 1371 1372 1372 1373 1373 1374 1375 1375 1376 1377 1377 1378 1378 1379 1380 1380 1381 1383 1384 1385 1386 1387 1388 1389 1389 1390 1391 1391 1392 1392 1392 1393 1393 1393 1393 1392 1392 1391 1390
1371 1370 1370 1370 1370 1370 1370 1370 1371 1372 1372 1373 1374 1374 1375 1375 1376 1377 1378 1379 1380 1381 1382 1383 1384 1385 1386 1387 1387 1388 1389 1389 1390 1391 1391 1392 1392 1392 1392 1392 1392 1391 1391 1390
1369 1369 1369 1368 1368 1368 1369 1369 1370 1370 1371 1371 1372 1373 1374 1374 1375 1376 1377 1378 1379 1380 1381 1382 1383 1384 1385 1386 1387 1387 1388 1389 1389 1390 1390 1391 1391 1391 1392 1391 1391 1391 1391 1390